Seattle, WA

10:37 PM PDT on April 21, 2018 (GMT -0700)
Seattle-Tacoma International

Weather History for KSEA - October, 2005

Change the Weather History Date:

Friday, October 28, 2005

  Actual Average Record
Temperature  
Mean Temperature 52 °F 50 °F  
Max Temperature 57 °F 56 °F 68 °F (2017)
Min Temperature 47 °F 44 °F 29 °F (1946)
Degree Days  
Heating Degree Days 13 15  
Month to date heating degree days 292 331  
Since 1 July heating degree days 504 548  
Cooling Degree Days 0 0  
Month to date cooling degree days 0 0  
Year to date cooling degree days 162 189  
Moisture  
Dew Point 44 °F    
Average Humidity 80    
Maximum Humidity 100    
Minimum Humidity 59    
Precipitation  
Precipitation 0.18 in 0.16 in 1.53 in (1982)
Month to date precipitation 1.91 2.98  
Year to date precipitation 22.16 25.07  
Snow  
Snow 0.00 in - - ()
Month to date snowfall 0.0  
Since 1 July snowfall 0.0  
Snow Depth -    
Sea Level Pressure  
Sea Level Pressure 29.86 in    
Wind  
Wind Speed 12 mph (South)    
Max Wind Speed 20 mph    
Max Gust Speed 25 mph    
Visibility 9 miles    
Events Rain    
T = Trace of Precipitation, MM = Missing Value Source: NWS Daily Summary

Daily Weather History Graph

Daily Weather History Graph

Search for Another Location

Airport or City:

Astronomy

Oct. 28, 2005 Rise Set
Actual Time 7:47 AM PDT 5:57 PM PDT
Civil Twilight 7:15 AM PDT 6:29 PM PDT
Nautical Twilight 6:39 AM PDT 7:05 PM PDT
Astronomical Twilight 6:03 AM PDT 7:41 PM PDT
Moon 2:55 AM PDT (10/28) 4:29 PM PDT (10/28)
Length of Visible Light 11h 14m
Length of Day
10h 10m
Waning Crescent, 17% of the Moon is Illuminated
Oct 28
Waning Crescent
Nov 1
New
Nov 8
First Quarter
Nov 15
Full
Nov 23
Last Quarter

Hourly Weather History & Observations

Time (PDT) Temp. Dew Point Humidity Pressure Visibility Wind Dir Wind Speed Gust Speed Precip Events Conditions
12:56 AM 52.0 °F 42.1 °F 69% 29.64 in 10.0 mi ESE 10.4 mph - 0.00 in   Overcast
1:56 AM 50.0 °F 44.1 °F 80% 29.66 in 10.0 mi South 5.8 mph - 0.01 in Rain Light Rain
2:56 AM 48.9 °F 48.0 °F 97% 29.70 in 4.0 mi West 10.4 mph 16.1 mph 0.02 in Rain Light Rain
3:03 AM 48.2 °F 48.2 °F 100% 29.68 in 4.0 mi West 6.9 mph - 0.01 in Rain Light Rain
3:56 AM 48.9 °F 48.0 °F 97% 29.71 in 5.0 mi South 8.1 mph - 0.08 in Rain Rain
4:56 AM 48.0 °F 46.9 °F 96% 29.73 in 10.0 mi SSE 15.0 mph - 0.03 in   Mostly Cloudy
5:56 AM 46.9 °F 45.0 °F 93% 29.76 in 10.0 mi South 9.2 mph - N/A   Mostly Cloudy
6:56 AM 48.0 °F 45.0 °F 89% 29.78 in 10.0 mi SSE 9.2 mph - N/A   Mostly Cloudy
7:56 AM 48.0 °F 44.1 °F 86% 29.80 in 10.0 mi South 10.4 mph - N/A   Mostly Cloudy
8:56 AM 50.0 °F 44.1 °F 80% 29.82 in 10.0 mi South 8.1 mph - N/A   Scattered Clouds
9:56 AM 48.9 °F 43.0 °F 80% 29.86 in 10.0 mi South 10.4 mph - N/A   Mostly Cloudy
10:56 AM 50.0 °F 43.0 °F 77% 29.87 in 10.0 mi South 13.8 mph - N/A   Scattered Clouds
11:56 AM 54.0 °F 43.0 °F 66% 29.88 in 10.0 mi SSW 16.1 mph - N/A   Scattered Clouds
12:56 PM 54.0 °F 42.1 °F 64% 29.89 in 10.0 mi SSW 18.4 mph 21.9 mph N/A   Mostly Cloudy
1:56 PM 55.0 °F 42.1 °F 62% 29.89 in 10.0 mi SSW 17.3 mph - N/A   Mostly Cloudy
2:56 PM 55.0 °F 41.0 °F 59% 29.89 in 10.0 mi SSW 18.4 mph 24.2 mph N/A   Mostly Cloudy
3:56 PM 55.0 °F 42.1 °F 62% 29.91 in 10.0 mi SSW 16.1 mph 23.0 mph N/A   Mostly Cloudy
4:56 PM 54.0 °F 42.1 °F 64% 29.93 in 10.0 mi South 13.8 mph - 0.00 in   Mostly Cloudy
5:56 PM 53.1 °F 42.1 °F 66% 29.95 in 10.0 mi South 11.5 mph - N/A   Mostly Cloudy
6:56 PM 50.0 °F 45.0 °F 83% 29.98 in 9.0 mi SSW 13.8 mph - 0.01 in Rain Light Rain
7:56 PM 48.9 °F 45.0 °F 86% 29.99 in 10.0 mi South 10.4 mph - 0.01 in   Overcast
8:56 PM 48.9 °F 45.0 °F 86% 30.01 in 10.0 mi South 10.4 mph - 0.00 in   Overcast
9:56 PM 48.0 °F 44.1 °F 86% 30.01 in 10.0 mi South 10.4 mph - 0.01 in   Overcast
10:56 PM 48.9 °F 45.0 °F 86% 30.03 in 10.0 mi South 10.4 mph - 0.00 in   Overcast
11:56 PM 48.9 °F 46.0 °F 90% 30.04 in 10.0 mi South 10.4 mph - 0.00 in Rain Light Rain